Weather History for KCYS - March, 2013

Change the Weather History Date:

Wednesday, March 27, 2013

  Actual Average Record
Temperature  
Mean Temperature 38 °F 38 °F  
Max Temperature 50 °F 50 °F 72 °F (1986)
Min Temperature 25 °F 27 °F -16 °F (1899)
Degree Days  
Heating Degree Days 27 27  
Month to date heating degree days 843 796  
Since 1 July heating degree days 5776 5815  
Cooling Degree Days 0 0  
Month to date cooling degree days 0 0  
Year to date cooling degree days 0 0  
Moisture  
Dew Point 28 °F    
Average Humidity 71    
Maximum Humidity 100    
Minimum Humidity 42    
Precipitation  
Precipitation 0.02 in 0.04 in 0.90 in (1878)
Month to date precipitation 0.56 0.88  
Year to date precipitation 1.44 1.68  
Snow  
Snow 0.00 in 0.40 in 7.50 in (1975)
Month to date snowfall 6.6 9.7  
Since 1 July snowfall 45.0 46.2  
Snow Depth 0.00 in    
Sea Level Pressure  
Sea Level Pressure 30.03 in    
Wind  
Wind Speed 6 mph (SW)    
Max Wind Speed 18 mph    
Max Gust Speed 28 mph    
Visibility 6 miles    
Events Fog , Rain    
T = Trace of Precipitation, MM = Missing Value Source: NWS Daily Summary

Daily Weather History Graph

Daily Weather History Graph

Search for Another Location

Airport or City:

Trip Planner

Search our weather history database for the weather conditions in past years. The results will help you decide how hot, cold, wet, or windy it might be!

Date:

Astronomy

Mar. 27, 2013 Rise Set
Actual Time 6:50 AM MDT 7:19 PM MDT
Civil Twilight 6:22 AM MDT 7:46 PM MDT
Nautical Twilight 5:50 AM MDT 8:19 PM MDT
Astronomical Twilight 5:16 AM MDT 8:53 PM MDT
Moon 8:06 PM MDT (3/27) 6:42 AM MDT (3/27)
Length of Visible Light 13h 24m
Length of Day
12h 28m
Full, 100% of the Moon is Illuminated
Mar 27
Full
Apr 2
Last Quarter
Apr 10
New
Apr 18
First Quarter
Apr 25
Full

Hourly Weather History & Observations

Time (MDT) Temp. Windchill Dew Point Humidity Pressure Visibility Wind Dir Wind Speed Gust Speed Precip Events Conditions
12:48 AM 30.2 °F - 30.2 °F 100% 29.99 in 1.8 mi Calm Calm - N/A   Overcast
12:53 AM 30.9 °F - 30.0 °F 96% 29.96 in 1.2 mi Calm Calm - N/A   Overcast
1:02 AM 30.2 °F 26.7 °F 28.4 °F 93% 29.99 in 0.2 mi West 3.5 mph - N/A Fog Light Freezing Fog
1:18 AM 30.2 °F - 28.4 °F 93% 29.99 in 0.2 mi Calm Calm - N/A Fog Light Freezing Fog
1:53 AM 30.0 °F - 28.0 °F 92% 29.98 in 0.2 mi Calm Calm - N/A Fog Light Freezing Fog
2:15 AM 28.4 °F - 26.6 °F 93% 29.99 in 0.2 mi Calm Calm - N/A Fog Light Freezing Fog
2:53 AM 28.0 °F - 27.0 °F 96% 29.99 in 0.2 mi Calm Calm - N/A Fog Light Freezing Fog
3:05 AM 28.4 °F - 26.6 °F 93% 29.99 in 0.8 mi Calm Calm - N/A   Overcast
3:07 AM 28.4 °F - 26.6 °F 93% 29.99 in 1.0 mi Calm Calm - N/A   Overcast
3:16 AM 28.4 °F - 26.6 °F 93% 29.98 in 2.0 mi Calm Calm - N/A   Overcast
3:21 AM 28.4 °F - 26.6 °F 93% 29.98 in 3.0 mi Calm Calm - N/A   Overcast
3:32 AM 28.4 °F - 26.6 °F 93% 29.99 in 3.0 mi Calm Calm - N/A   Overcast
3:35 AM 28.4 °F - 26.6 °F 93% 29.99 in 1.8 mi Calm Calm - N/A   Overcast
3:48 AM 26.6 °F 22.6 °F 26.6 °F 100% 29.98 in 2.0 mi West 3.5 mph - N/A   Overcast
3:53 AM 27.0 °F 23.0 °F 25.0 °F 92% 29.99 in 4.0 mi WSW 3.5 mph - N/A   Mostly Cloudy
4:53 AM 27.0 °F - 25.0 °F 92% 30.03 in 6.0 mi Calm Calm - N/A   Mostly Cloudy
5:53 AM 27.0 °F 20.5 °F 25.0 °F 92% 30.07 in 7.0 mi WSW 5.8 mph - N/A   Overcast
6:53 AM 26.1 °F 17.6 °F 23.0 °F 88% 30.09 in 9.0 mi WNW 8.1 mph - N/A   Clear
7:53 AM 27.0 °F 18.7 °F 24.1 °F 89% 30.12 in 9.0 mi West 8.1 mph - N/A   Partly Cloudy
8:53 AM 30.9 °F 26.2 °F 28.0 °F 89% 30.11 in 10.0 mi WSW 4.6 mph - N/A   Clear
9:53 AM 39.9 °F 37.8 °F 30.0 °F 68% 30.06 in 10.0 mi South 3.5 mph - N/A   Clear
10:53 AM 43.0 °F - 28.0 °F 56% 30.06 in 10.0 mi Calm Calm - N/A   Clear
11:53 AM 46.9 °F - 28.9 °F 50% 30.03 in 10.0 mi Calm Calm - N/A   Scattered Clouds
12:53 PM 48.9 °F - 27.0 °F 43% 30.02 in 10.0 mi SE 3.5 mph - N/A   Mostly Cloudy
1:53 PM 48.9 °F - 26.1 °F 41% 30.00 in 10.0 mi SSW 8.1 mph - N/A   Overcast
2:53 PM 45.0 °F 41.2 °F 28.0 °F 52% 30.04 in 7.0 mi NNW 6.9 mph - 0.00 in Rain Light Rain
3:01 PM 44.6 °F 41.4 °F 30.2 °F 57% 30.04 in 6.0 mi Variable 5.8 mph - 0.00 in Rain Light Rain
3:41 PM 44.6 °F 39.7 °F 35.6 °F 71% 30.02 in 10.0 mi East 9.2 mph - 0.02 in Rain Light Rain
3:53 PM 44.1 °F 40.1 °F 34.0 °F 68% 30.05 in 10.0 mi East 6.9 mph - 0.02 in   Overcast
4:53 PM 46.9 °F - 32.0 °F 56% 30.03 in 10.0 mi ENE 4.6 mph - 0.00 in   Overcast
5:53 PM 45.0 °F 40.1 °F 33.1 °F 63% 30.06 in 10.0 mi SE 9.2 mph - N/A   Overcast
6:53 PM 44.1 °F 36.8 °F 27.0 °F 51% 30.07 in 10.0 mi South 16.1 mph - N/A   Mostly Cloudy
7:53 PM 39.9 °F 32.5 °F 26.1 °F 58% 30.10 in 10.0 mi South 12.7 mph - N/A   Scattered Clouds
8:53 PM 37.0 °F 29.3 °F 25.0 °F 62% 30.12 in 10.0 mi SSW 11.5 mph - N/A   Scattered Clouds
9:53 PM 35.1 °F 27.4 °F 26.1 °F 70% 30.09 in 10.0 mi SW 10.4 mph - N/A   Overcast
10:53 PM 34.0 °F 26.0 °F 26.1 °F 73% 30.07 in 10.0 mi WSW 10.4 mph - N/A   Clear
11:53 PM 35.1 °F 28.6 °F 27.0 °F 72% 30.05 in 10.0 mi SSW 8.1 mph - N/A   Overcast